User: anonymous   Login
Location: Arrien
(43.3167°N, 0.1500°W)
Time: 05:08:58
(UTC+00:00)
Language:

Cosmos 1953 - Orbit

View from above orbital plane
View from above orbital plane
View from above satellite
View from above satellite

Ground track
Ground track

The orbit data is extracted from the following two-line orbital elements,

1 19210U 88050A   22021.59449991  .00001176  00000-0  77361-4 0  9994
2 19210  82.5164 203.5579 0012140 286.8137  73.1759 15.06622141830578
Epoch (UTC): 21 January 2022 14:16:04
Eccentricity: 0.0012140
inclination: 82.5164°
perigee height: 538 km
apogee height: 555 km
right ascension of ascending node: 203.5579°
argument of perigee: 286.8137°
revolutions per day: 15.06622141
mean anomaly at epoch: 73.1759°
orbit number at epoch: 83057

The dashed part of the orbit path shows where the satellite is in the earth's shadow,  

DLR